Theta_e
307 305 304 304 302 301 300 299 299 299 299 299 299 299 299 299 300 302 303 304 305 306 306 305 306 309 314 312 311 310 310 309 311 312 312 312 311 312 313 313 313 313 311 309 307 306 304
311 308 305 303 303 301 300 300 299 299 299 299 299 299 299 299 300 302 303 304 305 307 307 306 306 308 312 310 311 310 311 310 311 312 311 311 311 311 312 313 313 311 310 309 309 307 305
312 310 308 306 303 302 301 299 298 298 298 299 299 299 299 299 300 302 303 304 305 307 308 307 309 311 310 309 310 309 311 311 311 311 310 311 311 312 311 313 310 310 312 311 310 309 307
313 312 310 307 306 303 302 301 299 298 298 298 298 298 299 299 300 302 303 304 306 307 307 307 308 311 308 309 310 308 310 311 311 310 310 310 310 309 311 309 308 310 308 310 310 310 307
313 312 310 310 308 306 304 302 301 299 298 297 298 298 298 299 300 302 303 304 307 306 307 309 311 311 310 309 310 309 310 310 310 311 310 310 309 307 307 306 305 304 305 309 311 310 309
314 314 313 312 311 307 305 304 303 301 299 298 297 298 298 298 300 302 304 305 309 309 310 308 308 308 308 310 309 310 309 310 310 309 308 307 304 304 304 302 303 305 308 306 309 311 310
313 311 314 313 311 308 306 306 306 303 302 299 297 297 297 298 300 303 306 309 308 307 308 309 308 308 309 310 310 309 308 310 309 307 307 306 304 304 304 305 305 305 306 306 306 310 311
319 314 312 313 312 312 308 307 307 306 303 301 299 298 297 298 301 304 308 307 309 309 307 308 307 308 309 309 309 309 308 309 309 308 307 303 306 304 307 305 307 306 307 306 308 311 311
322 320 315 313 312 311 311 309 309 308 306 303 299 298 298 298 301 306 305 306 309 309 309 308 308 308 308 309 309 309 308 309 310 308 306 303 307 309 309 309 308 307 306 307 308 307 308
323 322 320 316 314 312 311 312 310 309 308 304 301 297 298 299 305 304 305 305 306 307 304 306 308 308 308 309 309 307 305 308 308 309 305 307 308 309 309 309 306 308 305 306 306 305 306
322 322 322 320 318 315 312 311 312 311 309 305 303 297 297 299 303 305 305 304 306 306 306 309 309 307 306 308 309 309 305 307 308 308 306 306 308 309 310 308 307 307 305 305 305 304 303
319 320 322 322 320 318 316 314 312 312 311 307 304 297 296 301 302 304 304 306 308 306 305 311 307 306 306 306 306 306 305 303 304 306 305 305 305 306 306 305 305 304 304 303 302 302 306
317 319 322 322 321 321 319 316 314 312 312 309 304 298 296 299 302 302 305 305 304 307 307 310 309 306 306 305 307 305 305 304 302 303 304 305 305 305 306 306 306 303 301 306 308 308 308
312 317 318 320 321 320 320 320 316 314 313 311 306 301 296 299 302 302 306 301 305 305 306 307 307 306 306 305 306 305 305 304 303 304 304 306 309 306 304 304 304 302 301 306 312 309 309
306 312 316 318 319 320 320 320 320 316 314 313 308 300 298 300 301 303 299 301 302 304 308 307 306 306 306 305 305 305 303 302 302 300 304 305 305 301 301 301 303 306 306 303 304 302 301
304 303 309 313 314 315 316 319 320 319 315 313 305 298 302 303 302 303 299 303 302 306 305 305 307 305 304 305 304 302 301 302 304 300 300 302 305 300 300 299 300 303 301 304 302 307 306
305 303 302 305 312 313 313 317 319 319 316 313 300 300 300 302 302 298 299 298 301 304 305 305 305 304 304 304 303 302 303 302 301 299 299 298 302 300 299 299 301 301 302 300 300 300 303
306 305 302 302 307 311 313 317 317 318 316 311 302 309 301 302 302 298 298 299 304 305 305 305 304 304 303 302 301 301 303 302 298 298 300 298 297 299 299 294 294 298 300 298 302 302 298
306 306 305 302 303 308 313 315 317 318 317 307 305 305 301 302 303 301 302 302 303 304 304 305 304 304 302 302 305 301 300 298 297 297 298 297 298 299 302 298 295 295 295 297 295 295 297
303 306 306 303 302 303 309 312 314 315 314 310 304 310 305 302 303 303 305 304 305 303 304 303 304 303 303 302 300 302 301 297 297 298 301 298 296 301 309 306 296 295 294 295 297 295 300
301 303 306 305 302 301 302 309 311 313 313 311 304 311 306 306 304 304 304 305 309 305 303 303 304 303 303 304 303 302 300 297 296 299 297 296 298 296 297 298 297 297 297 293 296 298 299
302 303 305 306 303 301 300 302 311 312 310 307 307 306 303 305 304 305 305 306 310 310 305 306 305 304 304 306 304 305 301 299 300 296 296 293 299 296 297 296 296 297 296 296 295 295 294
300 301 302 306 304 301 301 300 305 310 309 305 299 300 304 307 306 306 305 306 308 307 305 304 302 305 306 305 299 296 295 296 298 297 296 295 296 297 297 293 294 296 293 297 297 294 295
299 300 301 303 305 302 302 301 304 307 309 306 302 302 305 307 307 307 307 305 306 306 307 301 299 303 296 292 293 294 293 293 293 291 293 295 296 298 299 294 297 295 286 286 289 287 282
299 300 301 303 306 304 303 302 302 305 307 307 304 303 304 305 304 305 306 305 302 301 302 300 296 293 292 293 299 302 299 300 292 289 291 292 297 299 301 295 296 289 286 286 288 288 280
299 300 300 302 305 305 305 304 303 302 303 304 304 304 303 305 305 304 304 302 302 300 298 297 293 291 292 299 302 306 305 304 292 291 288 291 293 301 295 299 301 291 286 285 279 287 280
299 299 299 300 301 302 303 304 304 302 303 304 304 302 303 304 296 298 303 301 300 299 298 295 294 293 293 298 302 303 303 295 298 293 290 293 293 298 300 300 294 286 285 283 288 291 281
298 299 299 299 299 300 301 302 305 303 301 304 302 302 300 298 290 290 291 297 296 298 298 293 295 292 294 298 301 301 300 296 294 291 291 292 295 295 297 298 296 284 284 289 286 281 281
297 298 298 297 299 300 301 302 304 302 301 303 300 299 298 292 288 286 286 287 288 289 294 293 295 294 295 298 298 300 300 294 293 297 289 294 296 295 296 296 286 284 284 282 282 282 281
Wind_Speed
7 7 8 9 10 9 8 8 8 8 9 9 10 11 11 13 14 14 13 11 9 7 5 4 3 1 1 2 2 5 7 8 4 2 5 2 3 1 3 3 3 4 3 5 6 10 8
6 7 8 8 9 10 11 9 8 8 8 9 10 10 12 13 14 15 12 10 7 6 5 4 2 1 1 1 1 6 7 6 8 5 4 5 2 1 4 3 3 3 6 5 3 5 5
6 6 7 8 9 9 11 11 11 9 8 8 9 11 11 12 13 14 12 9 6 5 4 3 2 1 2 3 2 6 6 4 6 6 2 3 2 2 2 4 5 6 5 2 2 4 4
9 8 5 7 9 9 8 10 12 12 11 10 10 11 12 12 13 12 12 8 5 5 4 2 1 1 3 1 3 6 5 2 4 3 2 2 3 4 3 4 5 4 4 3 2 5 1
12 11 8 7 8 9 9 8 9 11 12 12 11 11 12 13 12 11 10 6 4 4 3 2 1 1 4 1 2 4 5 3 5 3 2 2 4 4 4 5 4 6 2 3 2 6 5
14 14 16 13 11 7 9 10 9 9 11 13 13 11 12 12 13 10 9 5 2 2 1 1 1 3 0 1 2 3 3 3 3 3 4 6 5 4 3 4 5 6 4 3 4 6 3
15 15 18 17 12 9 8 9 12 10 10 10 12 13 12 13 13 10 7 2 4 3 2 3 2 1 1 1 1 3 4 2 2 5 2 3 4 5 9 6 3 5 3 4 3 5 5
12 15 16 19 16 15 11 8 10 11 11 11 10 11 12 12 10 7 4 4 2 0 5 4 2 1 1 1 1 2 2 2 2 2 3 5 4 5 3 5 4 3 2 4 2 2 5
17 14 15 16 19 18 15 13 9 11 11 11 11 10 11 12 6 1 4 5 3 1 1 3 3 3 2 3 2 2 1 2 3 4 4 5 2 4 3 2 3 1 4 3 3 2 2
19 19 16 16 16 16 19 18 14 13 10 10 10 11 9 11 2 1 1 3 2 2 4 3 2 1 2 3 1 1 1 1 1 8 6 4 0 3 2 3 5 3 3 2 3 3 3
17 19 21 18 17 16 17 17 19 16 13 9 10 9 8 4 5 2 1 3 2 2 3 2 2 1 1 4 2 2 1 2 3 4 5 4 4 3 2 2 3 3 3 3 3 3 3
17 19 19 21 19 18 17 17 17 17 18 12 8 7 6 2 1 3 1 2 3 6 6 3 3 3 3 1 1 1 1 3 1 2 2 0 0 1 2 3 2 5 5 6 5 3 1
15 15 15 19 18 20 19 19 18 16 17 16 11 7 5 4 4 5 1 2 4 4 1 4 4 4 3 5 3 4 3 2 5 4 4 1 2 1 2 4 2 4 5 3 3 2 5
15 15 14 15 16 16 17 21 21 18 16 16 13 10 6 6 4 7 6 4 4 5 6 3 4 3 6 7 2 4 4 3 4 3 3 5 5 5 1 2 5 5 6 5 6 3 3
16 15 14 13 17 17 19 17 23 21 19 16 13 10 5 5 9 8 5 3 7 7 5 10 3 4 5 4 4 4 6 6 8 10 9 5 4 1 1 1 3 5 4 2 3 2 2
18 19 17 17 16 16 16 15 17 23 22 17 8 4 4 6 12 6 3 7 7 4 4 2 10 7 8 7 7 7 8 4 5 7 1 6 2 1 1 1 2 3 4 3 2 2 5
19 19 19 17 19 17 17 18 15 19 26 18 3 2 1 11 11 4 5 8 7 7 7 8 7 6 7 7 8 6 7 3 5 5 3 5 3 1 2 7 8 3 3 2 3 4 5
18 18 18 18 17 18 16 17 16 21 27 14 6 2 2 11 2 2 4 7 5 5 3 6 3 7 9 8 8 6 11 5 9 9 9 7 5 5 7 1 1 1 6 6 5 5 3
18 18 19 18 17 15 11 12 14 22 20 8 3 1 1 2 4 5 4 5 4 5 6 8 8 7 5 9 4 8 6 2 6 8 9 8 3 1 5 1 1 5 5 4 4 3 7
19 18 17 18 18 16 14 12 11 17 16 6 2 2 1 1 2 2 0 4 5 1 3 4 3 4 4 6 5 6 6 2 3 4 3 3 4 6 7 4 5 5 6 6 6 4 5
24 20 18 17 17 16 14 14 12 19 14 8 1 2 1 4 5 7 3 2 4 3 3 2 1 5 6 7 5 6 3 2 3 3 3 3 7 4 3 3 3 5 5 8 12 13 9
19 20 18 17 15 14 13 12 11 18 18 7 3 1 2 1 2 9 10 8 10 7 1 4 2 5 2 3 1 4 5 3 4 1 5 1 1 3 3 2 5 6 8 10 14 12 12
22 21 20 18 15 13 10 9 11 21 16 3 4 3 1 3 3 3 5 7 9 9 7 5 2 1 5 6 4 3 2 3 3 6 8 6 5 3 4 3 5 9 13 19 7 3 6
21 23 23 20 17 14 11 8 10 18 21 6 6 6 2 4 5 4 4 8 9 7 2 3 3 4 2 6 4 1 8 7 5 3 1 5 5 2 0 2 3 2 1 2 3 2 3
20 22 21 19 19 15 12 8 8 19 18 17 8 6 3 3 4 4 7 3 1 2 5 3 3 2 5 1 3 4 1 1 3 2 0 0 4 2 3 4 6 2 4 5 5 5 6
20 20 21 18 15 13 13 13 10 12 19 22 10 13 3 3 6 1 2 4 3 2 1 3 3 4 2 2 2 5 6 4 4 2 3 2 3 6 3 4 7 4 2 2 3 4 7
20 20 22 23 21 20 18 16 14 12 16 26 7 17 1 2 1 2 4 3 4 3 1 3 3 3 2 1 2 3 3 1 5 6 5 4 2 12 7 4 7 3 5 4 6 5 6
20 20 20 21 23 26 26 23 18 15 14 28 10 11 4 0 1 3 4 1 2 2 4 4 3 1 2 4 3 3 3 5 3 3 5 6 8 4 4 4 9 5 5 6 3 2 6
19 19 20 22 23 24 25 23 20 17 16 25 7 11 7 5 2 4 5 4 3 3 2 5 1 2 3 3 2 2 2 1 2 2 1 4 4 5 7 3 1 7 3 3 3 6 5
Wind_Direction
19 15 13 15 15 15 16 18 20 14 7 358 358 359 357 355 349 349 353 350 338 348 348 351 343 337 319 8 270 344 347 359 356 357 46 31 58 67 107 85 73 82 126 55 79 82 73
8 360 1 5 8 5 6 5 9 7 3 359 355 356 355 354 350 347 347 346 336 338 343 358 357 317 0 293 18 342 346 9 25 27 32 31 104 133 94 65 73 81 90 118 48 89 102
329 344 344 352 357 360 359 357 357 355 355 352 354 350 349 350 348 344 339 339 327 324 332 355 24 40 72 239 2 356 344 3 14 17 36 51 30 56 98 90 156 140 86 84 152 169 138
308 311 313 336 344 350 352 354 355 354 350 349 349 347 346 345 345 340 337 334 322 319 324 334 334 3 231 349 344 358 3 350 14 25 41 36 23 97 63 110 35 68 59 134 199 150 119
301 306 310 319 325 333 337 343 345 350 350 348 343 343 343 343 339 335 336 327 320 305 314 319 322 13 284 297 359 353 2 356 349 29 59 47 68 79 43 89 32 12 199 193 240 199 141
284 292 293 303 311 309 324 330 338 342 342 346 343 340 339 339 336 333 334 319 320 316 278 294 353 26 323 284 337 344 357 2 29 354 31 46 49 71 46 88 209 198 206 223 218 203 160
300 292 287 296 301 302 307 320 326 335 337 334 340 336 336 338 339 336 345 325 14 338 59 209 234 243 269 307 342 20 6 46 52 47 128 5 88 206 211 190 152 146 176 201 232 167 142
298 298 295 291 292 299 298 305 313 321 330 332 329 329 333 337 338 333 359 76 108 182 313 202 211 250 194 147 329 314 6 118 96 164 111 28 231 214 166 181 191 211 188 241 308 130 168
289 287 288 292 290 291 293 295 302 306 318 327 330 326 328 331 325 332 59 109 121 115 167 262 199 188 202 150 197 239 5 133 144 146 177 165 253 139 145 145 155 252 193 213 204 99 154
294 286 279 284 287 289 289 293 297 297 305 317 326 328 327 333 301 42 99 124 134 107 49 240 222 263 121 117 296 107 34 163 137 191 165 229 229 152 139 193 138 222 196 139 142 101 228
291 289 284 273 278 281 284 285 292 296 297 307 317 326 326 335 319 285 123 141 122 76 359 155 194 104 84 148 137 3 24 49 180 175 112 251 163 154 166 213 165 224 62 59 47 85 31
293 287 285 274 272 273 277 281 282 291 296 300 302 314 313 254 146 286 211 174 118 47 256 182 138 164 123 116 148 117 96 58 64 111 50 263 318 103 141 76 70 140 74 45 51 77 323
304 291 291 284 291 275 272 274 277 279 287 294 296 296 285 256 160 162 191 20 46 152 290 203 199 169 167 177 190 173 156 166 168 111 222 337 205 116 119 118 44 81 75 320 338 357 228
295 301 285 278 286 289 284 275 268 270 272 282 288 291 259 235 199 164 114 42 210 223 210 131 136 113 189 158 206 161 138 232 214 114 122 171 293 171 350 180 175 177 159 170 239 218 254
296 293 296 292 283 282 283 285 269 261 260 265 279 272 245 217 193 179 88 142 218 213 178 149 91 168 226 203 168 156 204 210 201 176 179 160 258 168 125 153 145 180 189 175 113 54 48
304 301 294 290 286 285 293 287 285 265 250 248 257 252 231 184 171 141 88 216 216 210 130 154 184 167 191 195 162 174 187 193 204 198 152 200 179 219 160 118 28 166 161 84 14 246 260
303 300 297 295 301 298 284 276 271 271 246 237 188 302 271 163 146 76 195 229 229 213 164 175 215 187 212 182 186 201 200 192 173 163 159 144 132 150 84 205 184 155 198 70 121 166 204
304 304 300 298 293 296 297 278 258 253 241 208 147 195 194 162 151 183 197 200 219 196 153 234 194 208 188 178 188 219 206 224 164 151 169 193 145 187 197 134 351 254 205 162 152 215 235
301 306 307 302 301 302 298 307 265 243 237 162 150 109 2 272 205 222 261 263 235 163 199 188 216 205 182 185 215 199 198 67 155 162 164 180 200 88 326 16 19 220 200 147 99 76 196
292 297 301 303 298 296 291 287 293 231 236 185 127 198 146 13 309 198 163 267 257 263 255 195 209 137 147 210 243 210 175 180 167 182 140 122 172 189 194 162 127 192 199 184 154 148 220
287 287 290 295 297 296 286 281 275 241 221 180 57 279 183 181 227 216 113 13 292 291 237 215 207 229 198 198 179 198 119 98 27 210 105 164 212 175 247 199 178 205 191 179 206 219 204
285 279 285 283 290 292 287 281 247 236 219 149 163 200 325 284 117 178 198 207 209 248 327 266 233 13 221 217 254 143 131 169 195 105 163 178 222 112 300 8 223 246 220 223 223 232 255
272 281 277 276 277 282 287 276 239 236 209 153 135 132 187 184 174 188 201 212 204 160 218 221 176 251 248 272 45 36 56 26 129 164 178 159 145 127 259 342 318 278 205 218 232 197 222
265 271 276 272 261 265 270 281 231 232 222 234 150 124 192 264 213 203 221 209 217 199 205 163 194 189 106 107 124 66 55 63 73 26 17 151 140 128 17 22 254 287 253 158 219 214 129
268 267 270 267 249 253 256 256 238 227 235 229 189 157 181 259 239 234 232 201 183 226 199 187 141 52 169 176 106 145 97 24 187 64 15 319 144 147 184 210 302 263 203 171 162 275 179
261 265 270 265 252 251 255 249 243 236 228 239 243 203 213 144 233 156 181 180 196 186 228 130 87 44 260 193 164 208 196 173 181 186 355 110 76 180 159 213 232 245 187 132 113 296 183
259 260 263 266 266 261 263 264 244 240 225 225 227 218 202 207 226 127 214 207 153 161 106 122 137 114 321 196 187 191 215 26 180 186 169 139 135 214 206 232 285 195 140 150 93 253 142
251 259 261 260 255 252 257 261 241 237 226 219 219 225 213 130 6 42 336 242 113 180 163 138 119 190 143 194 218 195 199 210 181 139 174 164 156 183 169 206 269 144 95 177 185 102 142
259 264 261 257 254 248 246 244 240 237 227 215 194 200 191 87 88 65 82 51 19 342 117 179 106 151 155 176 222 186 188 83 103 224 229 206 188 176 195 208 28 186 25 58 130 131 142